Location: Newark
(51.2000°N, 58.6167°E)
Time: 00:01:35
(UTC+00:00)

ISS - Pass Details

Date: 23 September 2020
Orbit: 417 x 420 km, 51.6° (Epoch: 27 October)

Event Time Altitude Azimuth Distance (km) Brightness Sun altitude
Rises 15:53:51 0° 261° (W) 2,367 1.1 -18.1°
Reaches altitude 10° 15:55:56 10° 262° (W) 1,504 -0.1 -18.4°
Maximum altitude 15:59:19 87° 349° (N) 427 -3.8 -18.8°
Enters shadow 15:59:43 68° 75° (ENE) 458 -3.9 -18.9°
